Regional Weather Roundup
Issued by NWS

Home | Current Version | Previous Version | Text Only | Print | Product List | Glossary Off
Versions: 1 2 3 4 5 6 7 8 9 10 11 12 13 14 15 16 17 18 19 20 21 22 23 24 25 26 27 28 29 30 31 32 33 34 35 36 37 38 39 40 41 42 43 44 45 46 47 48 49 50

000
ASUS43 KMKX 270021
RWRWI

WISCONSIN REGIONAL WEATHER ROUNDUP
NATIONAL WEATHER SERVICE MILWAUKEE/SULLIVAN WI
700 PM CDT TUE AUG 26 2014

NOTE: "FAIR" INDICATES FEW OR NO CLOUDS BELOW 12,000 FEET WITH NO
SIGNIFICANT WEATHER AND/OR OBSTRUCTIONS TO VISIBILITY.

WIZ001-002-006>008-014>016-023>028-270100-
NORTHWEST WISCONSIN

CITY           SKY/WX    TMP DP  RH WIND       PRES   REMARKS
SUPERIOR ARPT  MOCLDY    65  52  61 NW8       30.13R
6HR MIN TEMP:  64; 6HR MAX TEMP:  70;

ASHLAND        MOCLDY    66  52  60 W3        30.14R
6HR MIN TEMP:  66; 6HR MAX TEMP:  69;

HAYWARD        MOCLDY    67  52  58 NW3       30.14S
6HR MIN TEMP:  64; 6HR MAX TEMP:  70;

SIREN          MOCLDY    66  53  62 NW3       30.15S
6HR MIN TEMP:  66; 6HR MAX TEMP:  71;

RICE LAKE      PTCLDY    65  53  64 CALM      30.16S
6HR MIN TEMP:  65; 6HR MAX TEMP:  70;

LADYSMITH      CLEAR     68  53  58 NW6       30.16S
6HR MIN TEMP:  65; 6HR MAX TEMP:  71;

EAU CLAIRE     MOCLDY    68  55  63 W5        30.13S
6HR MIN TEMP:  66; 6HR MAX TEMP:  73;

MENOMONIE      MOCLDY    69  52  53 W6        30.14R
6HR MIN TEMP:  66; 6HR MAX TEMP:  73;

NEW RICHMOND   PTCLDY    67  53  60 CALM      30.15S
6HR MIN TEMP:  66; 6HR MAX TEMP:  71;

OSCEOLA        PTCLDY    68  55  64 CALM      30.17S
6HR MIN TEMP:  66; 6HR MAX TEMP:  71;

$$

WIZ003>005-009-010-017-018-270100-
NORTH CENTRAL WISCONSIN

CITY           SKY/WX    TMP DP  RH WIND       PRES   REMARKS
WOODRUFF       PTCLDY    64  51  62 NW5       30.14S
6HR MIN TEMP:  62; 6HR MAX TEMP:  72;

RHINELANDER    CLEAR     67  52  58 W5        30.14R
6HR MIN TEMP:  62; 6HR MAX TEMP:  70;

EAGLE RIVER    PTCLDY    64  48  55 NW5       30.13S
6HR MIN TEMP:  62; 6HR MAX TEMP:  69;

LAND O LAKES   PTCLDY    63  50  63 N7        30.15R
6HR MIN TEMP:  63; 6HR MAX TEMP:  69;

PHILLIPS       MOCLDY    65  52  62 W3        30.14S
6HR MIN TEMP:  62; 6HR MAX TEMP:  69;

TOMAHAWK       CLEAR     65  53  63 W3        30.14S
6HR MIN TEMP:  64; 6HR MAX TEMP:  69;

MEDFORD        CLEAR     65  53  65 W5        30.14S
6HR MIN TEMP:  62; 6HR MAX TEMP:  68;

MERRILL        CLEAR     67  54  61 W5        30.13R
6HR MIN TEMP:  63; 6HR MAX TEMP:  71;

$$

WIZ029-030-035-036-043>047-270100-
CENTRAL WISCONSIN

CITY           SKY/WX    TMP DP  RH WIND       PRES   REMARKS
WAUSAU         CLEAR     69  52  54 W9        30.11S
6HR MIN TEMP:  64; 6HR MAX TEMP:  72; 6HR PCP: TRACE;

MOSINEE        CLEAR     66  55  68 W8        30.14S
MARSHFIELD     CLEAR     67  55  65 NW5       30.14R
6HR MIN TEMP:  64; 6HR MAX TEMP:  73;

STEVENS POINT  CLEAR     68  54  60 CALM      30.13S
6HR MIN TEMP:  65; 6HR MAX TEMP:  69;

WAUPACA        CLEAR     72  55  55 W7        30.12R
6HR MIN TEMP:  72; 6HR MAX TEMP:  77;

WAUTOMA        CLEAR     72  55  54 NW7       30.11F
6HR MIN TEMP:  72; 6HR MAX TEMP:  77;

WISC RAPIDS    CLEAR     67  56  67 W6        30.14S
6HR MIN TEMP:  67; 6HR MAX TEMP:  73;

CAMP DOUGLAS   PTCLDY    66  61  82 NW7       30.13S
$$

WIZ011>013-019>022-031-037>040-048>050-270100-
NORTHEAST WISCONSIN

CITY           SKY/WX    TMP DP  RH WIND       PRES   REMARKS
ANTIGO         CLEAR     66  54  65 CALM      30.13S
6HR MIN TEMP:  62; 6HR MAX TEMP:  70;

STURGEON BAY   CLEAR     70  55  60 W3        30.09S
6HR MIN TEMP:  70; 6HR MAX TEMP:  72;

GREEN BAY      CLEAR     71  59  65 NW7       30.09R
6HR MIN TEMP:  70; 6HR MAX TEMP:  75;

MANITOWOC      CLEAR     72  60  66 W7        30.09S
6HR MIN TEMP:  72; 6HR MAX TEMP:  75;

APPLETON       PTCLDY    72  55  56 W7        30.10S
CLINTONVILLE   CLEAR     70  54  56 NW7       30.10S
OSHKOSH        CLEAR     73  58  59 W5        30.09S
6HR MIN TEMP:  71; 6HR MAX TEMP:  75;

$$

WIZ032>034-041-042-053>061-270100-
SOUTHWEST WISCONSIN

CITY           SKY/WX    TMP DP  RH WIND       PRES   REMARKS
LA CROSSE      PTCLDY    72  56  57 N6        30.12F
6HR MIN TEMP:  70; 6HR MAX TEMP:  76;

SPARTA         PTCLDY    69  55  59 CALM      30.14F
6HR MIN TEMP:  68; 6HR MAX TEMP:  73;

VIROQUA        FAIR      69  57  65 N6        30.14S
6HR MIN TEMP:  69; 6HR MAX TEMP:  73;

BOSCOBEL       CLEAR     75  59  57 W7        30.12R
6HR MIN TEMP:  74; 6HR MAX TEMP:  81;

PRAIRIE DU CHI CLEAR     74  57  55 N5        30.11S
6HR MIN TEMP:  73; 6HR MAX TEMP:  77;

PLATTEVILLE    FAIR      74  64  71 CALM      30.12S
6HR MIN TEMP:  73; 6HR MAX TEMP:  77;

$$

WIZ056-057-062-063-064-067-068-270100-
SOUTH CENTRAL WISCONSIN

CITY           SKY/WX    TMP DP  RH WIND       PRES   REMARKS
BARABOO/DELLS  CLEAR     71  55  58 CALM      30.11F
6HR MIN TEMP:  71; 6HR MAX TEMP:  76;

LONE ROCK      CLEAR     78  60  53 N5        30.11S
6HR MIN TEMP:  76; 6HR MAX TEMP:  82;

WATERTOWN      CLEAR     72  59  64 NW7       30.09S
6HR MIN TEMP:  71; 6HR MAX TEMP:  76;

MADISON        PTCLDY    75  61  61 NW5       30.10F
6HR MIN TEMP:  73; 6HR MAX TEMP:  78;

MIDDLETON      FAIR      74  61  63 NW3       30.11S
6HR MIN TEMP:  73; 6HR MAX TEMP:  78;

MONROE         CLEAR     73  63  68 NW3       30.11S
JANESVILLE     NOT AVBL
$$

WIZ051-052-058>065-066-070>072-270100-
SOUTHEAST WISCONSIN

CITY           SKY/WX    TMP DP  RH WIND       PRES   REMARKS
MILWAUKEE      MOCLDY    76  60  57 NW7       30.07S
6HR MIN TEMP:  70; 6HR MAX TEMP:  79;

WAUKESHA       NOT AVBL
MILWAUKEE/TIMM CLEAR     73  57  56 W9        30.09S
RACINE         PTCLDY    74  61  63 CALM      30.09F
6HR MIN TEMP:  69; 6HR MAX TEMP:  78;

BURLINGTON     CLEAR     71  64  81 CALM      30.09S
6HR MIN TEMP:  69; 6HR MAX TEMP:  75;

KENOSHA        CLEAR     75  65  70 NW5       30.08F
6HR MIN TEMP:  70; 6HR MAX TEMP:  78;

FOND DU LAC    CLEAR     72  58  61 W3        30.10S
6HR MIN TEMP:  72; 6HR MAX TEMP:  75;

SHEBOYGAN      CLEAR     72  59  63 NW5       30.09S
6HR MIN TEMP:  71; 6HR MAX TEMP:  77;

WEST BEND      CLEAR     72  54  53 NW3       30.09S
JUNEAU         CLEAR     71  57  61 CALM      30.12S
$$

LSZ147-162-270100-
LAKE SUPERIOR

STATION/POSITION TIME  TEMP    WIND        PRES    WAVE
                       AIR SEA DIR/SP/G            HT/PER
                 (UTC) (F)     (DEG/KT/KT) (MB)    (FT/S)
W MID LAKE BUOY  2350   57 54  240/  6/  8 1019.5R   2/ 5
DEVILS ISLAND    0000   61     250/  8/  9 1020.0R
PORT WING        2300   68     260/  8/ 12 1020.0S
SAXON HARBOR     2300   68     270/  1/  3 1020.0S
$$

LMZ867-665-643>646-270100-
LAKE MICHIGAN

STATION/POSITION TIME  TEMP    WIND        PRES    WAVE
                       AIR SEA DIR/SP/G            HT/PER
                 (UTC) (F)     (DEG/KT/KT) (MB)    (FT/S)
N MID LAKE BUOY  2350   67 66  310/  2/  4 1018.2F   0
NORTHPORT PIER   2300   68     140/  6/  7 1018.3F
SISTER BAY       2211   77        CALM       N/A
KEWAUNEE LAKESHO 2300   74     290/  3/  7 1017.7F
SHEBOYGAN LAKESH 0000   73 68  320/  9/ 11 1018.7S
ATWATER BUOY     0000   71     130/  4/  6 1019.7R
MILWAUKEE LAKESH 0000   72      90/  6/  7   N/A
S MID LAKE BUOY  2350   70 69  360/  2/  4 1018.4F   1/ 4
KENOSHA   LAKESH 0000   78     120/  3/  3 1017.9S
$$

TC  - TEMPERATURE IN CELSIUS
VSB - VISIBILITY IN STATUTE MILES
WCI - WIND CHILL INDEX
HX  - HEAT INDEX




USA.gov is the U.S. government's official web portal to all federal, state and local government web resources and services.